Regional Weather Roundup
Issued by NWS

Home | Current Version | Previous Version | Graphics & Text | Print | Product List | Glossary On
Versions: 1 2 3 4 5 6 7 8 9 10 11 12 13 14 15 16 17 18 19 20 21 22 23 24 25 26 27 28 29 30 31 32 33 34 35 36 37 38 39 40 41 42 43 44 45 46 47 48 49 50
000
ASUS43 KOAX 220702
RWRNE

WEATHER ROUNDUP FOR NEBRASKA
NATIONAL WEATHER SERVICE OMAHA NE
200 AM CDT TUE APR 22 2014

NOTES: SATELLITE DATA IS BEING USED TO AUGMENT CLOUD COVER ABOVE
       12000 FEET.
       "FAIR" INDICATES FEW OR NO CLOUDS BELOW 12,000 FEET WITH NO
       SIGNIFICANT WEATHER AND/OR OBSTRUCTIONS TO VISIBILITY.

  * THESE STATIONS DO NOT REPORT WEATHER SUCH AS RAIN...SNOW OR FOG.

NEZ001>004-019>022-054>056-220800-
NEBRASKA PANHANDLE

CITY           SKY/WX    TMP DP  RH WIND       PRES   REMARKS
SCOTTSBLUFF    CLEAR     46  29  51 E12       30.08F
ALLIANCE       CLEAR     43  28  55 SE13      30.10F
CHADRON        CLEAR     52  27  38 NW3       30.05F
KIMBALL        CLEAR     48  29  47 S12       30.10F
SIDNEY         CLEAR     45  29  53 S13       30.13F
$$

NEZ057>060-069>072-079>082-220800-
SOUTHWEST NEBRASKA

CITY           SKY/WX    TMP DP  RH WIND       PRES   REMARKS
NORTH PLATTE   PTCLDY    38  28  67 E7        30.16F WCI  33
IMPERIAL       CLEAR     46  29  51 SE8       30.16F
LEXINGTON      CLEAR     39  32  74 CALM      30.18S
MCCOOK         CLEAR     46  31  55 E5        30.17S
OGALLALA       CLEAR     49  26  41 S8        30.15S
$$

NEZ005>010-023>029-035>040-094-220800-
NORTH CENTRAL NEBRASKA

CITY           SKY/WX    TMP DP  RH WIND       PRES   REMARKS
VALENTINE      CLEAR     48  28  46 SE9       30.14S
AINSWORTH      CLEAR     43  31  64 SE6       30.15S
BROKEN BOW     CLEAR     38  28  67 CALM      30.17S
ORD            CLEAR     37  29  72 SW6       30.16S WCI  32
THEDFORD       CLEAR     45  27  49 SE5       30.16F
$$

NEZ041-046>049-061>064-073>077-083>087-220800-
SOUTH CENTRAL NEBRASKA

CITY           SKY/WX    TMP DP  RH WIND       PRES   REMARKS
GRAND ISLAND   CLEAR     47  33  58 E3        30.18S
AURORA         CLEAR     45  29  55 E7        30.17F
HASTINGS       CLEAR     46  29  51 E7        30.16F
HEBRON         CLEAR     48  32  53 CALM      30.17S
HOLDREGE       CLEAR     44  31  60 E8        30.17S
KEARNEY *      CLEAR     45  32  61 E5        30.18S
YORK           CLEAR     46  30  53 N6        30.17F
$$

NEZ011>018-030>034-042>045-220800-
NORTHEAST NEBRASKA

CITY           SKY/WX    TMP DP  RH WIND       PRES   REMARKS
NORFOLK        CLEAR     48  31  51 CALM      30.16S
ALBION         CLEAR     40  30  65 CALM      30.17S
BLAIR          CLEAR     48  32  53 N3        30.15S
COLUMBUS *     CLEAR     45  27  49 CALM      30.17F
FREMONT        CLEAR     49  32  51 CALM      30.16S
TEKAMAH        CLEAR     40  28  62 NW9       30.16S WCI  34
$$

NEZ050>053-065>068-078-088>093-220800-
SOUTHEAST NEBRASKA

CITY           SKY/WX    TMP DP  RH WIND       PRES   REMARKS
LINCOLN        CLEAR     48  32  53 N6        30.17S
OMAHA EPPLEY   CLEAR     49  34  56 NW5       30.16R
BEATRICE       CLEAR     49  30  47 NE5       30.16R
FALLS CITY     CLEAR     52  35  52 N3        30.12R
NEBRASKA CITY  CLEAR     51  34  52 N6        30.15R
PLATTSMOUTH    CLEAR     51  32  47 N3        30.15S
$$

NEZ044-045-051>053-067-220800-
OMAHA AREA

CITY           SKY/WX    TMP DP  RH WIND       PRES   REMARKS
OMAHA EPPLEY   CLEAR     49  34  56 NW5       30.16R
BLAIR          CLEAR     48  32  53 N3        30.15S
FREMONT        CLEAR     49  32  51 CALM      30.16S
MILLARD        CLEAR     52  33  47 CALM      30.15S
OFFUTT AFB     CLEAR     53  34  48 N9        30.15S
PLATTSMOUTH    CLEAR     51  32  47 N3        30.15S
WAHOO          FAIR      46  31  56 N3        30.15F
$$



USA.gov is the U.S. government's official web portal to all federal, state and local government web resources and services.